Location: Tierz
(42.1336°N, 0.3549°W)
Time: 17:34:36
(UTC+00:00)

ARGOS - Pass Details

Date: 29 October 2020
Orbit: 819 x 835 km, 98.4° (Epoch: 03 December)

Event Time Altitude Azimuth Distance (km) Brightness Sun altitude
Exits shadow 19:58:52 43° 256° (WSW) 1,160 4.1 -33.8°
Maximum altitude 19:59:03 43° 262° (W) 1,157 4.2 -33.9°
Drops below altitude 10° 20:04:14 10° 333° (NNW) 2,455 6.0 -34.8°
Sets 20:06:44 0° 340° (NNW) 3,394 6.7 -35.3°
